Vorticity
nan nan nan nan nan nan nan nan nan nan nan nan nan nan nan nan nan nan nan nan nan nan nan nan nan nan nan nan nan nan nan nan nan nan nan nan nan nan nan nan nan nan nan nan nan nan nan nan nan
nan 10 9 7 8 5 7 10 7 5 8 9 3 4 6 6 12 14 9 9 8 5 5 7 6 6 7 7 5 4 5 5 6 5 5 4 4 5 5 5 4 6 6 5 6 6 6 6 nan
nan 10 9 7 5 4 1 11 2 10 8 5 -2 2 10 7 12 6 9 16 5 6 4 8 8 6 5 6 6 5 5 6 5 5 5 4 5 4 5 5 5 6 6 6 5 6 5 5 nan
nan 11 4 5 4 1 4 -3 11 5 1 3 6 6 2 8 13 12 11 8 5 5 5 4 6 6 5 6 6 6 6 5 5 5 5 5 4 5 5 5 6 5 5 5 4 4 5 5 nan
nan 5 8 7 4 2 7 -1 9 5 3 7 5 2 7 9 10 13 9 4 5 5 6 3 6 8 8 7 7 7 6 5 6 6 4 5 5 5 5 5 5 5 5 5 5 4 4 5 nan
nan 7 8 5 8 6 1 8 7 8 5 6 6 5 10 11 12 7 7 6 3 6 6 5 8 13 13 8 8 7 5 6 7 7 7 5 5 5 5 5 5 5 5 5 5 5 5 6 nan
nan 5 3 6 6 4 3 12 10 9 9 8 7 8 6 11 11 9 5 6 4 5 4 7 8 8 10 10 10 8 6 6 7 8 7 7 6 6 5 5 5 5 5 5 5 7 8 7 nan
nan 9 8 7 9 8 4 3 9 11 8 9 11 11 11 15 7 6 5 5 6 5 2 7 8 7 7 4 4 8 8 7 7 6 6 5 5 5 5 7 5 5 5 6 7 7 7 5 nan
nan 10 9 8 4 5 6 6 1 7 12 3 2 5 17 21 6 6 4 2 8 5 6 4 5 7 5 3 3 5 6 5 5 4 5 4 5 6 2 3 6 5 5 7 6 4 5 6 nan
nan 4 6 6 5 7 5 7 2 6 8 4 -0 5 12 11 7 5 4 2 6 6 6 4 5 4 4 5 6 4 3 4 4 5 3 5 6 6 5 5 5 6 6 5 3 6 5 6 nan
nan 3 7 5 6 8 7 6 4 4 5 13 10 6 10 5 5 5 6 5 5 7 5 6 4 5 4 4 4 5 5 7 9 8 5 7 5 6 6 5 8 8 7 5 3 3 9 11 nan
nan 6 5 6 8 7 7 4 6 3 2 5 14 14 14 5 5 6 5 7 7 4 6 7 5 5 4 4 6 6 6 7 8 9 7 5 6 7 6 7 8 6 7 8 8 8 6 8 nan
nan 8 7 12 9 5 8 4 6 4 3 0 4 13 13 4 6 7 5 8 6 5 9 7 6 5 6 4 6 7 7 7 8 8 7 5 7 7 6 6 7 8 7 6 8 8 7 7 nan
nan 8 9 8 13 11 9 6 5 5 1 4 7 12 10 8 7 4 8 7 5 6 5 8 7 7 6 6 7 6 8 9 7 7 8 7 6 8 9 8 6 6 7 7 8 8 8 8 nan
nan 7 12 11 6 7 13 10 10 7 7 7 4 10 9 10 10 6 7 7 7 5 6 8 8 7 6 6 6 7 7 8 7 9 10 8 8 8 8 8 7 6 8 10 7 7 8 8 nan
nan 13 12 14 10 9 4 4 15 12 9 6 4 5 10 12 8 8 7 8 8 7 7 6 8 9 6 6 6 7 9 8 10 10 8 9 11 8 6 7 9 8 8 8 8 9 8 9 nan
nan 8 7 11 15 12 6 5 5 6 14 11 7 6 6 10 10 11 7 9 9 9 6 6 8 8 7 7 7 7 6 9 10 10 11 9 7 8 7 8 8 8 8 8 8 9 10 8 nan
nan 9 9 9 7 9 9 14 14 9 6 13 10 9 6 11 9 10 9 9 10 9 7 5 8 8 7 5 6 6 8 8 7 8 11 10 7 8 8 8 8 9 9 8 9 7 8 10 nan
nan 7 8 6 3 7 10 10 8 6 5 16 19 10 8 8 11 12 9 9 9 10 8 7 7 6 6 7 7 5 7 6 6 7 9 10 10 9 9 9 8 9 8 9 9 6 5 7 nan
nan 10 10 11 10 2 6 9 8 5 3 3 9 12 13 9 12 9 8 7 8 9 8 9 6 8 5 7 7 9 9 7 7 7 7 9 10 10 10 10 8 9 8 7 8 9 8 7 nan
nan 12 11 9 10 12 13 17 18 14 8 8 8 6 4 14 16 9 9 6 8 8 8 9 8 7 7 7 4 6 6 9 8 8 6 7 9 9 10 10 9 8 8 8 8 10 10 8 nan
nan 10 14 14 11 11 9 16 22 20 18 11 6 8 7 6 9 18 8 7 8 8 9 10 10 7 6 7 8 5 3 7 8 8 8 7 7 9 10 9 9 9 9 9 9 10 12 13 nan
nan 8 9 10 10 12 9 5 15 16 10 16 15 7 10 7 10 13 11 10 7 9 10 9 10 6 8 6 6 6 7 9 12 10 8 5 5 7 8 8 8 9 9 8 9 11 12 12 nan
nan 9 14 17 17 13 14 7 0 13 9 9 13 13 12 13 13 7 10 9 10 10 9 11 10 9 10 7 9 10 10 8 8 7 5 6 6 6 7 8 8 7 9 10 8 9 10 11 nan
nan 10 16 17 12 11 14 16 3 6 17 15 14 13 14 14 14 10 8 9 12 12 11 13 8 9 9 10 11 13 11 8 8 7 8 8 6 8 7 8 7 10 9 9 10 7 7 10 nan
nan 16 8 5 -0 4 17 17 10 2 9 14 17 13 20 19 13 15 11 11 9 9 9 12 11 8 10 11 10 11 9 9 10 11 9 7 10 8 8 9 9 9 8 8 9 8 8 8 nan
nan 12 7 14 12 10 11 2 9 17 4 2 7 14 14 17 18 15 11 9 7 8 9 9 10 9 11 10 10 10 11 11 10 8 10 11 10 10 9 8 9 8 8 9 9 9 8 8 nan
nan 7 13 10 10 13 16 17 10 6 7 6 8 10 14 18 24 14 10 10 8 9 11 10 11 11 12 10 10 10 11 10 11 8 9 10 9 9 9 8 8 9 9 8 8 9 9 9 nan
nan 8 8 7 8 6 7 10 11 2 11 13 10 14 18 29 26 12 12 12 13 11 9 10 11 10 8 10 10 11 9 9 9 9 9 9 10 9 8 9 9 8 8 8 9 9 8 9 nan
nan nan nan nan nan nan nan nan nan nan nan nan nan nan nan nan nan nan nan nan nan nan nan nan nan nan nan nan nan nan nan nan nan nan nan nan nan nan nan nan nan nan nan nan nan nan nan nan nan
CAPE
0 0 0 18 29 21 32 39 60 43 37 0 0 0 0 0 5 208 0 2 0 0 0 119 210 264 559 640 549 229 10 9 8 10 9 5 9 18 15 8 10 9 29 26 9 9 11 8 6
0 0 0 21 1 35 8 38 34 64 90 0 0 0 0 69 18 0 8 29 0 0 0 5 176 296 531 579 555 386 23 5 5 7 10 11 12 13 10 6 14 26 9 9 11 7 4 1 0
0 0 0 4 2 6 17 33 30 179 119 0 0 5 137 149 4 16 0 47 0 0 0 5 225 484 525 647 547 391 221 3 5 8 9 8 9 8 8 8 15 14 11 11 9 5 2 0 0
0 0 0 0 1 2 4 33 30 127 123 127 100 26 0 0 0 0 23 2 0 0 6 0 280 601 738 747 664 342 219 0 5 10 10 10 12 10 8 11 12 8 11 11 9 8 5 2 0
0 0 4 2 0 3 1 0 0 51 154 170 171 165 59 0 0 0 33 0 0 3 9 14 238 603 808 759 706 391 168 6 9 11 10 12 8 4 3 5 2 1 1 1 1 1 5 13 8
0 0 2 2 2 0 1 0 0 11 104 197 207 142 33 0 0 0 1 0 0 1 12 66 130 293 365 508 528 279 134 0 10 19 12 8 4 0 0 0 0 0 0 0 0 9 13 9 4
0 6 0 0 0 1 2 0 0 19 47 193 205 198 23 0 0 1 0 0 0 3 22 68 191 224 166 220 185 118 22 7 27 33 34 19 0 2 1 0 0 0 0 0 8 9 5 0 0
0 5 5 1 2 0 0 0 0 26 52 147 205 172 219 0 0 0 0 2 0 2 16 73 48 188 167 186 17 0 0 0 7 6 0 0 0 0 0 0 0 0 0 0 3 1 0 0 0
0 19 5 0 0 0 0 0 0 27 113 171 184 149 26 0 0 0 2 5 4 1 6 81 144 95 98 2 0 0 0 0 0 0 0 0 0 0 0 0 0 0 0 0 7 0 0 0 0
20 13 3 0 0 0 0 0 0 65 68 149 235 104 0 0 7 1 0 1 2 1 1 16 137 164 34 2 0 0 0 0 0 0 0 0 0 0 0 0 0 0 0 1 0 0 0 0 0
25 29 13 10 11 5 1 3 0 0 0 86 184 273 20 3 4 3 0 0 6 6 4 0 8 12 16 6 0 0 0 0 0 0 0 0 0 0 0 3 0 12 0 42 18 3 0 0 0
0 12 16 15 12 7 2 0 0 0 0 15 112 179 77 4 4 0 0 0 2 13 10 10 2 3 1 0 0 0 0 1 3 7 0 1 6 8 20 22 24 74 29 17 7 0 0 0 0
0 7 15 12 21 15 10 1 0 0 0 0 24 104 124 25 1 0 0 0 2 7 6 7 15 5 1 0 0 0 0 0 5 6 3 4 13 26 35 36 39 6 0 1 0 0 0 0 0
0 1 15 15 17 10 12 15 6 0 0 0 0 15 124 95 45 1 0 0 3 10 6 4 4 10 0 0 0 0 0 0 9 12 8 9 20 46 33 33 2 0 0 0 0 0 0 0 0
0 0 0 2 18 27 17 12 9 6 0 0 0 0 1 91 72 58 0 0 1 8 14 6 7 6 0 0 0 0 0 13 11 6 16 16 29 50 17 3 0 0 0 0 0 0 0 0 0
0 0 0 0 0 19 45 1 0 10 0 0 0 0 0 69 105 97 21 2 2 3 8 8 3 0 2 0 0 1 22 6 16 7 17 36 0 0 0 0 0 0 0 0 0 0 0 0 0
0 0 0 0 0 0 6 0 4 12 13 9 0 0 0 33 87 96 58 23 6 4 8 4 4 3 5 0 0 12 25 7 3 1 13 0 0 0 0 0 0 0 0 0 0 0 0 0 0
0 0 0 0 0 1 11 1 13 10 18 10 24 0 0 2 43 108 36 13 5 4 5 4 8 12 5 0 3 1 0 0 0 0 0 0 0 0 0 0 0 0 0 0 0 0 0 0 0
0 0 0 0 0 0 2 6 11 8 3 3 20 20 7 17 32 36 4 1 3 5 7 5 14 20 3 0 12 0 0 0 0 0 0 0 0 0 0 0 0 0 0 0 0 0 0 0 0
1 1 0 0 0 0 0 1 2 0 0 1 7 27 27 58 70 5 7 0 2 1 5 3 22 26 1 2 0 0 0 0 0 0 0 0 0 0 0 0 0 0 0 0 0 0 0 0 0
15 4 2 0 0 0 8 2 0 0 0 0 2 0 3 25 138 31 5 9 10 8 10 26 19 12 5 0 3 0 0 0 0 0 0 0 0 0 0 0 0 0 0 0 0 0 0 0 0
14 4 13 9 5 3 1 7 0 0 0 0 0 0 0 7 30 81 6 8 29 17 6 13 15 13 7 1 0 0 0 0 0 0 0 0 0 0 0 0 0 0 0 0 0 0 0 0 0
3 4 6 12 18 17 0 13 0 0 0 0 0 0 0 0 52 76 2 6 40 19 29 10 6 17 6 0 0 0 0 0 0 0 0 0 0 0 0 0 0 0 0 0 0 0 0 0 0
11 11 13 13 57 49 7 7 0 0 0 1 0 0 12 0 0 181 0 48 19 14 48 43 11 13 0 0 0 0 0 0 0 0 2 2 1 0 0 0 0 0 0 0 0 0 0 0 0
25 40 40 22 33 5 0 12 0 0 0 0 0 0 0 0 0 104 0 1 2 5 17 35 11 0 0 0 0 0 0 0 0 0 1 1 1 1 0 0 0 0 0 0 0 0 0 0 0
42 55 42 29 9 43 0 19 0 1 20 21 2 0 0 25 33 157 0 2 0 0 0 0 0 0 0 0 0 0 0 0 0 0 1 1 1 2 0 0 0 0 0 0 0 0 0 0 0
19 3 12 87 8 12 0 0 0 4 21 3 0 0 0 6 135 97 1 0 0 0 0 0 0 0 0 0 0 0 0 0 0 1 1 1 0 0 0 0 0 0 0 0 0 0 0 0 0
61 2 56 68 52 19 31 19 1 0 0 0 0 0 0 0 114 3 0 0 0 0 0 0 0 0 1 0 0 0 1 0 1 0 0 0 0 0 0 0 0 0 0 0 0 0 0 0 0
31 14 27 52 31 24 52 63 6 1 1 5 4 3 0 0 132 0 0 0 3 2 0 0 0 0 1 1 1 0 0 0 0 0 0 0 0 0 0 0 0 0 0 0 0 0 0 0 0
47 34 19 37 12 22 9 2 1 6 11 10 7 5 1 1 0 0 0 0 5 2 0 1 0 0 0 1 0 0 0 0 0 0 0 0 0 0 0 0 0 0 0 0 0 0 0 0 0